Regional Weather Roundup
Issued by NWS

Home | Current Version | Previous Version | Text Only | Print | Product List | Glossary Off
Versions: 1 2 3 4 5 6 7 8 9 10 11 12 13 14 15 16 17 18 19 20 21 22 23 24 25 26 27 28 29 30 31 32 33 34 35 36 37 38 39 40 41 42 43 44 45 46 47 48 49 50

000
ASUS43 KMKX 180311
RWRWI

WISCONSIN REGIONAL WEATHER ROUNDUP
NATIONAL WEATHER SERVICE MILWAUKEE/SULLIVAN WI
1000 PM CDT FRI APR 17 2015

NOTE: "FAIR" INDICATES FEW OR NO CLOUDS BELOW 12,000 FEET WITH NO
SIGNIFICANT WEATHER AND/OR OBSTRUCTIONS TO VISIBILITY.

WIZ001-002-006>008-014>016-023>028-180400-
NORTHWEST WISCONSIN

CITY           SKY/WX    TMP DP  RH WIND       PRES   REMARKS
SUPERIOR ARPT  CLEAR     50  28  43 CALM      29.99S
ASHLAND        CLEAR     52  25  35 SW6       30.00R
HAYWARD        CLEAR     52  29  41 CALM      30.02R
SIREN          PTCLDY    51  26  38 CALM      30.03S
CUMBERLAND     CLEAR     50  27  40 W3        30.03S
RICE LAKE      CLEAR     52  34  50 CALM      30.04S
CHETEK         CLEAR     52  40  63 NW3       30.03R
LADYSMITH      PTCLDY    58  31  36 W5        30.04R
EAU CLAIRE     PTCLDY    57  30  35 CALM      30.02R
MENOMONIE      PTCLDY    60  32  34 CALM      30.03R
NEW RICHMOND   CLEAR     55  31  41 CALM      30.04R
OSCEOLA        CLEAR     49  37  63 CALM      30.05S
$$

WIZ003>005-009-010-017-018-180400-
NORTH CENTRAL WISCONSIN

CITY           SKY/WX    TMP DP  RH WIND       PRES   REMARKS
MANITOWISH WTR CLEAR     46  37  70 CALM      30.01R
ARBOR VITAE    CLEAR     52  32  46 CALM      30.01R
WOODRUFF       CLEAR     52  32  46 CALM      30.01R
RHINELANDER    CLEAR     57  28  33 W7        30.01R
EAGLE RIVER    CLEAR     45  31  57 CALM      30.00S
LAND O LAKES   CLEAR     41  34  76 CALM      30.01S
PHILLIPS       PTCLDY    49  39  67 CALM      30.01R
TOMAHAWK       CLEAR     50  33  53 CALM      30.02R
MEDFORD        CLEAR     54  37  52 NW3       30.02R
MERRILL        CLEAR     58  36  43 W3        30.00S
$$

WIZ029-030-035-036-043>047-180400-
CENTRAL WISCONSIN

CITY           SKY/WX    TMP DP  RH WIND       PRES   REMARKS
WAUSAU         CLEAR     61  41  47 NW7       29.98S
MOSINEE        CLEAR     61  41  48 W8        30.01R
MARSHFIELD     CLEAR     57  43  59 NW10      30.01R
STEVENS POINT  CLEAR     54  42  65 CALM      30.00S
WAUPACA        CLEAR     58  43  56 CALM      29.99R
WAUTOMA        CLEAR     55  43  64 CALM      30.00R
WISC RAPIDS    CLEAR     57  40  52 CALM      30.01R
CAMP DOUGLAS   PTCLDY    54  46  76 W1        30.00R
$$

WIZ011>013-019>022-031-037>040-048>050-180400-
NORTHEAST WISCONSIN

CITY           SKY/WX    TMP DP  RH WIND       PRES   REMARKS
ANTIGO         CLEAR     57  43  57 W7        30.00R
SHAWANO        CLEAR     62  41  45 S3        29.97S
OCONTO         PTCLDY    46  41  80 CALM      29.96S
STURGEON BAY   CLEAR     46  37  71 S6        29.99S
GREEN BAY      CLEAR     56  45  66 CALM      29.98R
MANITOWOC      CLEAR     45  42  89 CALM      29.99S
APPLETON       CLEAR     59  43  55 S5        29.99R
CLINTONVILLE   CLEAR     57  43  58 S3        29.98R
OSHKOSH        PTCLDY    57  44  62 S9        29.99R
$$

WIZ032>034-041-042-053>061-180400-
SOUTHWEST WISCONSIN

CITY           SKY/WX    TMP DP  RH WIND       PRES   REMARKS
LA CROSSE      PTCLDY    64  49  57 CALM      30.00R
SPARTA         PTCLDY    52  41  66 CALM      30.02R
VIROQUA        PTCLDY    66  40  38 W3        30.03R
BOSCOBEL       FAIR      57  46  66 CALM      30.01R
PRAIRIE DU CHI PTCLDY    61  45  56 CALM      30.01R
PLATTEVILLE    MOCLDY    68  46  45 CALM      30.02R
$$

WIZ056-057-062-063-064-067-068-180400-
SOUTH CENTRAL WISCONSIN

CITY           SKY/WX    TMP DP  RH WIND       PRES   REMARKS
REEDSBURG      CLEAR     61  44  52 CALM      30.00R
BARABOO/DELLS  CLEAR     61  40  46 CALM      30.00S
LONE ROCK      PTCLDY    58  46  64 CALM      30.01R
MINERAL POINT  PTCLDY    68  41  37 CALM      30.02S
MADISON        PTCLDY    59  45  59 CALM      30.00R
MIDDLETON      CLEAR     57  47  69 CALM      30.01S
WATERTOWN      CLEAR     57  45  65 CALM      30.00R
MONROE         PTCLDY    68  45  42 W7        30.01S
JANESVILLE     CLEAR     61  45  55 CALM      30.00R
$$

WIZ051-052-058>065-066-070>072-180400-
SOUTHEAST WISCONSIN

CITY           SKY/WX    TMP DP  RH WIND       PRES   REMARKS
MILWAUKEE      PTCLDY    50  39  66 E3        30.01S
WAUKESHA       CLEAR     55  41  58 S3        30.01S
MILWAUKEE/TIMM CLEAR     54  37  54 CALM      30.01S
RACINE         CLEAR     50  41  71 CALM      30.02S
BURLINGTON     CLEAR     52  44  73 CALM      30.01S
KENOSHA        CLEAR     48  42  80 CALM      30.01S
FOND DU LAC    CLEAR     58  42  55 S3        29.99R
SHEBOYGAN      CLEAR     49  40  71 SW5       29.99S
WEST BEND      CLEAR     55  36  47 CALM      30.00S
JUNEAU         CLEAR     58  44  58 SE3       30.01S
$$

LSZ147-162-180400-
LAKE SUPERIOR

STATION/POSITION TIME  TEMP    WIND        PRES    WAVE
                       AIR SEA DIR/SP/G            HT/PER
                 (UTC) (F)     (DEG/KT/KT) (MB)    (FT/S)
DEVILS ISLAND    0300   52     290/ 18/ 19 1015.7R
PORT WING        0240   55     180/  5/  7 1015.2R
SAXON HARBOR     0200   51     200/  5/  6 1014.6R
$$

LMZ867-665-643>646-180400-
LAKE MICHIGAN

STATION/POSITION TIME  TEMP    WIND        PRES    WAVE
                       AIR SEA DIR/SP/G            HT/PER
                 (UTC) (F)     (DEG/KT/KT) (MB)    (FT/S)
CHAMBERS ISLAND  0200   47      CALM  /  1 1015.2R
NORTHPORT PIER   0200   47     360/  3/  5 1015.6R
SISTER BAY       0202   49     200/  5/  6   N/A
KEWAUNEE LAKESHO 0200   44     180/  7/  9 1014.5R
SHEBOYGAN LAKESH 0300   54     220/  8/  8 1016.1F
PORT WASHINGTON  0240   47     260/  2/  4 1016.6S
MILWAUKEE LAKESH 0200   43     190/  1/  1   N/A
KENOSHA   LAKESH 0300   46        CALM     1016.3S
$$

TC  - TEMPERATURE IN CELSIUS
VSB - VISIBILITY IN STATUTE MILES
WCI - WIND CHILL INDEX
HX  - HEAT INDEX



USA.gov is the U.S. government's official web portal to all federal, state and local government web resources and services.